Weather History for Mobridge, SD

Change the Weather History Date:

Friday, January 16, 2004

  Actual Average Record
Temperature  
Mean Temperature 33 °F 16 °F  
Max Temperature 41 °F 26 °F 53 °F (1974)
Min Temperature 25 °F 6 °F -29 °F (1943)
Degree Days  
Heating Degree Days 32 49  
Month to date heating degree days 784  
Since 1 July heating degree days 4000  
Cooling Degree Days 0 0  
Month to date cooling degree days 0  
Year to date cooling degree days 0  
Moisture  
Dew Point 29 °F    
Average Humidity 88    
Maximum Humidity 100    
Minimum Humidity 67    
Precipitation  
Precipitation 0.00 in 0.01 in 0.40 in (1927)
Month to date precipitation 0.17  
Year to date precipitation 0.17  
Snow  
Snow 0.00 in - - ()
Month to date snowfall  
Since 1 July snowfall  
Snow Depth -    
Sea Level Pressure  
Sea Level Pressure 29.88 in    
Wind  
Wind Speed 5 mph (North)    
Max Wind Speed 18 mph    
Max Gust Speed 22 mph    
Visibility 8 miles    
Events      
T = Trace of Precipitation, MM = Missing Value Source: NWS Daily Summary

Daily Weather History Graph

Daily Weather History Graph

Search for Another Location

Airport:

Trip Planner

Search our weather history database for the weather conditions in past years. The results will help you decide how hot, cold, wet, or windy it might be!

Date:

Astronomy

Jan. 16, 2004 Rise Set
Actual Time 8:17 AM CST 5:25 PM CST
Civil Twilight 7:44 AM CST 5:58 PM CST
Nautical Twilight 7:08 AM CST 6:34 PM CST
Astronomical Twilight 6:32 AM CST 7:10 PM CST
Moon 2:36 AM CST (1/16) 12:43 PM CST (1/16)
Length of Visible Light 10h 13m
Length of Day
9h 07m
Waning Crescent, 33% of the Moon is Illuminated
Jan 16
Waning Crescent
Jan 21
New
Jan 29
First Quarter
Feb 6
Full
Feb 13
Last Quarter

Hourly Weather History & Observations

Time (CST) Temp. Windchill Dew Point Humidity Pressure Visibility Wind Dir Wind Speed Gust Speed Precip Events Conditions
12:55 AM 28.0 °F - 25.0 °F 88% 29.79 in 10.0 mi Calm Calm - N/A   Clear
1:55 AM 28.0 °F 24.2 °F 26.1 °F 92% 29.78 in 10.0 mi ESE 3.5 mph - N/A   Clear
2:55 AM 26.1 °F 21.9 °F 24.1 °F 92% 29.78 in 10.0 mi SE 3.5 mph - N/A   Clear
3:55 AM 27.0 °F 23.0 °F 25.0 °F 92% 29.78 in 10.0 mi ESE 3.5 mph - N/A   Clear
4:55 AM 26.1 °F - 25.0 °F 96% 29.78 in 10.0 mi Calm Calm - N/A   Clear
5:55 AM 25.0 °F 19.3 °F 24.1 °F 96% 29.77 in 10.0 mi ESE 4.6 mph - N/A   Clear
6:55 AM 25.0 °F 18.1 °F 23.0 °F 92% 29.78 in 10.0 mi SE 5.8 mph - N/A   Clear
7:55 AM 27.0 °F 23.0 °F 25.0 °F 92% 29.79 in 10.0 mi ESE 3.5 mph - N/A   Clear
8:55 AM 26.1 °F - 24.1 °F 92% 29.81 in 10.0 mi Calm Calm - N/A   Clear
9:55 AM 28.0 °F - 26.1 °F 92% 29.82 in 10.0 mi Calm Calm - N/A   Clear
10:55 AM 34.0 °F 31.0 °F 28.9 °F 82% 29.83 in 10.0 mi WNW 3.5 mph - N/A   Clear
11:55 AM 34.0 °F - 28.9 °F 82% 29.84 in 10.0 mi Calm Calm - N/A   Clear
12:55 PM 37.0 °F - 30.0 °F 76% 29.83 in 10.0 mi Calm Calm - N/A   Clear
1:55 PM 39.9 °F 33.4 °F 30.9 °F 70% 29.82 in 10.0 mi NW 10.4 mph - N/A   Clear
2:55 PM 41.0 °F 33.5 °F 30.9 °F 67% 29.83 in 10.0 mi NW 13.8 mph - N/A   Clear
3:55 PM 41.0 °F 33.5 °F 32.0 °F 70% 29.85 in 10.0 mi NW 13.8 mph - N/A   Clear
4:55 PM 37.9 °F 30.0 °F 32.0 °F 79% 29.88 in 10.0 mi NNW 12.7 mph - N/A   Mostly Cloudy
5:39 PM 37.4 °F 27.5 °F 33.8 °F 87% 29.85 in 10.0 mi NNW 18.4 mph 21.9 mph N/A   Overcast
5:55 PM 37.0 °F 28.5 °F 33.1 °F 86% 29.92 in 10.0 mi NW 13.8 mph - N/A   Overcast
6:55 PM 36.0 °F 28.0 °F 33.1 °F 89% 29.96 in 10.0 mi NNW 11.5 mph - N/A   Overcast
7:24 PM 35.6 °F 28.6 °F 33.8 °F 93% 29.91 in 8.0 mi NNW 9.2 mph - N/A   Overcast
7:55 PM 36.0 °F 26.7 °F 33.1 °F 89% 29.98 in 9.0 mi NNW 15.0 mph - N/A   Overcast
8:55 PM 35.1 °F 24.8 °F 32.0 °F 89% 30.00 in 9.0 mi NNW 17.3 mph - N/A   Overcast
9:38 PM 33.8 °F 26.4 °F 32.0 °F 93% 29.96 in 4.0 mi North 9.2 mph - N/A   Overcast
9:55 PM 33.1 °F 25.5 °F 32.0 °F 96% 30.02 in 2.5 mi North 9.2 mph - N/A   Overcast
10:48 PM 32.0 °F 24.2 °F 32.0 °F 100% 29.98 in 1.8 mi North 9.2 mph - N/A   Overcast
10:55 PM 32.0 °F 24.8 °F 32.0 °F 100% 30.03 in 1.8 mi North 8.1 mph - N/A   Overcast
11:14 PM 32.0 °F 23.6 °F 30.2 °F 93% 29.98 in 2.0 mi North 10.4 mph - N/A   Overcast
11:39 PM 32.0 °F 23.0 °F 30.2 °F 93% 29.98 in 1.8 mi North 11.5 mph - N/A   Overcast
11:55 PM 32.0 °F 24.8 °F 30.9 °F 96% 30.04 in 1.2 mi North 8.1 mph - N/A   Overcast